CW8690 Weather Reports


Display with metric or nautical units.
time (UTC)temp
F
wind
direction
speed
MPH
gust
MPH
rain 1hr
in
rain 24hr
in
rain mn
in
humidity
%
barometer
mb
20260509231136 82 51 4.0 10.0 0.00 0.82 0.82 83 1006.3
20260509225636 83 91 6.0 13.0 0.00 0.82 0.82 82 1006.1
20260509224129 83 46 3.0 12.0 0.00 0.82 0.82 84 1006.3
20260509151119 82 58 4.0 11.0 0.00 0.01 0.01 78 1009.2
20260509145642 82 79 6.0 12.0 0.00 0.01 0.01 79 1008.4
20260509144137 82 67 5.0 17.0 0.00 0.01 0.01 83 1008.5
20260509142636 80 63 2.0 11.0 0.00 0.01 0.01 89 1008.6
20260509141126 78 60 1.0 10.0 0.00 0.01 0.01 96 1008.5
20260509135625 77 326 3.0 12.0 0.00 0.01 0.01 97 1008.9
20260509134125 76 142 0.0 9.0 0.01 0.02 0.01 98 1009.1
20260509132656 77 263 2.0 6.0 0.01 0.02 0.01 98 1009.5
20260509131143 76 44 0.0 2.0 0.01 0.02 0.01 98 1009.2
20260509125638 76 329 0.0 2.0 0.01 0.02 0.01 98 1009.2
20260509124131 76 360 0.0 3.0 0.00 0.01 0.00 98 1009.2
20260509122628 76 331 0.0 4.0 0.00 0.01 0.00 98 1009.0
20260509121144 76 325 0.0 3.0 0.00 0.01 0.00 98 1008.4
20260509115641 76 335 1.0 3.0 0.00 0.01 0.00 98 1007.9
20260509114135 76 355 0.0 3.0 0.00 0.01 0.00 98 1007.6
20260509112626 76 355 0.0 3.0 0.00 0.01 0.00 98 1007.3
20260509111122 76 305 0.0 4.0 0.00 0.01 0.00 98 1006.8
20260509105621 76 355 1.0 5.0 0.00 0.01 0.00 98 1006.6
20260509104138 75 59 0.0 2.0 0.00 0.01 0.00 97 1005.7
20260509102618 75 65 0.0 0.0 0.00 0.01 0.00 97 1004.8
20260509101119 76 65 1.0 3.0 0.00 0.01 0.00 97 1004.7
20260509095643 76 360 0.0 3.0 0.00 0.01 0.00 97 1005.0
20260509094118 76 128 0.0 3.0 0.00 0.02 0.00 97 1005.2
20260509092643 76 128 0.0 2.0 0.00 0.02 0.00 96 1005.2
20260509091117 76 127 3.0 5.0 0.00 0.02 0.00 96 1004.9
20260509085641 77 155 3.0 5.0 0.00 0.02 0.00 96 1005.0
20260509084137 77 168 0.0 3.0 0.00 0.06 0.00 96 1005.4
20260509082616 77 109 2.0 7.0 0.00 0.06 0.00 96 1005.0
20260509081119 77 165 4.0 8.0 0.00 0.06 0.00 96 1005.2
20260509075623 77 140 5.0 14.0 0.00 0.06 0.00 96 1005.3
20260509074141 77 133 7.0 13.0 0.00 0.10 0.00 96 1005.1
20260509072617 77 133 5.0 11.0 0.00 0.10 0.00 96 1005.4
20260509071139 77 113 3.0 6.0 0.00 0.10 0.00 96 1005.6
20260509065703 77 87 3.0 7.0 0.00 0.10 0.00 95 1006.3
20260509064157 77 119 0.0 0.0 0.00 0.10 0.00 95 1007.1
20260509062700 77 119 0.0 0.0 0.00 0.10 0.00 95 1007.0
20260509061202 77 119 0.0 0.0 0.00 0.10 0.00 95 1007.1
20260509055618 78 119 0.0 0.0 0.00 0.10 0.00 95 1007.4
20260509054200 78 119 0.0 0.0 0.00 0.10 0.00 94 1007.2
20260509052646 78 119 2.0 4.0 0.00 0.10 0.00 94 1006.9
20260509051120 78 121 0.0 3.0 0.00 0.10 0.00 94 1007.2
20260509045631 78 120 0.0 0.0 0.00 0.10 0.00 94 1007.3
20260509044133 78 120 2.0 6.0 0.00 0.10 0.10 94 1007.0
20260509042617 78 286 2.0 7.0 0.00 0.10 0.10 94 1007.0
20260509041119 78 141 7.0 15.0 0.00 0.10 0.10 94 1005.3
20260509035622 78 95 5.0 10.0 0.00 0.10 0.10 94 1005.2
20260509034123 78 141 4.0 8.0 0.00 0.10 0.10 94 1007.1
20260509032628 78 155 3.0 6.0 0.00 0.10 0.10 94 1007.3
20260509031130 78 150 2.0 5.0 0.00 0.10 0.10 93 1006.7
20260509025619 78 132 3.0 7.0 0.00 0.10 0.10 93 1006.4
20260509024141 78 149 3.0 8.0 0.00 0.10 0.10 93 1006.3
20260509022635 78 126 5.0 10.0 0.00 0.10 0.10 93 1006.0